Home > Weather > Saint-Petersburg > Past weeks

Flag for Russia Past Weather in Saint-Petersburg, Russia — Yesterday and Last 2 Weeks

Now
75 °F

Partly sunny.


Feels Like: 77 °F
Forecast: 64 / 73 °F
Wind: 8 mph from South

Location: St. Petersburg

Current Time: Jul 29, 2016 at 1:27:13 PM

Latest Report: Jul 29, 2016 at 1:00 PM


Visibility: N/A

Pressure: 29.80 "Hg

Humidity: 74%

Dew Point: 66 °F

Location of Saint-PetersburgLocation

Past Weather in Saint-Petersburg — Graph

°F

Saint-Petersburg Temperature Yesterday

Maximum temperature yesterday: 81 °F (at 2:00 PM)
Minimum temperature yesterday: 61 °F (at 4:30 AM)
Average temperature yesterday: 72 °F

High & Low Weather Summary for the Past Weeks

 TemperatureHumidityPressure
High81 °F (Jul 24, 2:00 PM)100% (Jul 19, 6:00 AM)30.12 "Hg (Jul 19, 6:00 AM)
Low55 °F (Jul 17, 3:30 AM)42% (Jul 17, 3:30 PM)29.65 "Hg (Jul 15, 6:00 PM)
Average67 °F80%29.93 "Hg
* Reported Jul 14 12:00 PM — Jul 29 12:00 PM, Saint-Petersburg, Weather by CustomWeather, © 2016

Note: Actual official high and low records may vary slightly from our data, if they occured in-between our weather recording intervals... More about our weather records

Advertising

Saint-Petersburg Weather History for the Previous 24 Hours

Scroll right to see more
 ConditionsComfort  
Time TempWeatherWind HumidityBarometerVisibility
12:00 PM
Fri, Jul 29
73 °FPartly sunny.8 mph78%29.80 "HgN/A
11:30 AM72 °FCloudy.6 mph83%29.80 "HgN/A
11:00 AM72 °FPartly sunny.3 mph83%29.80 "HgN/A
10:30 AM72 °FPartly sunny.3 mph83%29.80 "HgN/A
10:00 AM70 °FPartly sunny.3 mph88%29.80 "HgN/A
9:30 AM68 °FBroken clouds.6 mph88%29.80 "HgN/A
9:00 AM68 °FPartly sunny.6 mph94%29.80 "HgN/A
8:30 AM68 °FScattered clouds.3 mph88%29.80 "HgN/A
8:00 AM68 °FSprinkles. Broken clouds.3 mph88%29.80 "HgN/A
7:30 AM66 °FSprinkles. Broken clouds.3 mph94%29.83 "HgN/A
7:00 AM66 °FSprinkles. Broken clouds.1 mph94%29.80 "HgN/A
6:30 AM68 °FSprinkles. Broken clouds.1 mph88%29.83 "HgN/A
6:00 AM68 °FPassing clouds.1 mph83%29.83 "HgN/A
5:30 AM66 °FPassing clouds.1 mph88%29.83 "HgN/A
5:00 AM66 °FPassing clouds.3 mph88%29.83 "HgN/A
4:30 AM66 °FPassing clouds.3 mph88%29.83 "HgN/A
4:00 AM66 °FPassing clouds.3 mph88%29.83 "HgN/A
3:30 AM68 °FPassing clouds.3 mph88%29.83 "HgN/A
3:00 AM68 °FPassing clouds.3 mph88%29.83 "HgN/A
2:30 AM70 °FPartly cloudy.3 mph83%29.83 "HgN/A
2:00 AM70 °FPartly cloudy.6 mph83%29.83 "HgN/A
1:30 AM70 °FPartly cloudy.3 mph83%29.83 "HgN/A
1:00 AM70 °FPartly cloudy.No wind83%29.83 "HgN/A
12:30 AM70 °FPartly cloudy.1 mph83%29.83 "HgN/A
12:00 AM72 °FPartly cloudy.3 mph78%29.83 "HgN/A
11:30 PM
Thu, Jul 28
70 °FPartly cloudy.6 mph83%29.86 "HgN/A
11:00 PM70 °FPassing clouds.3 mph83%29.86 "HgN/A
10:30 PM72 °FPassing clouds.6 mph78%29.86 "HgN/A
10:00 PM72 °FPassing clouds.6 mph73%29.86 "HgN/A
9:30 PM73 °FSunny.6 mph69%29.86 "Hg10 mi
9:00 PM75 °FSunny.6 mph65%29.86 "Hg10 mi
8:30 PM77 °FSunny.6 mph61%29.86 "Hg10 mi
8:00 PM75 °FSunny.6 mph69%29.86 "Hg10 mi
7:30 PM79 °FSunny.3 mph58%29.86 "Hg10 mi
7:00 PM81 °FPassing clouds.3 mph54%29.86 "HgN/A
6:30 PM79 °FSunny.6 mph54%29.89 "Hg10 mi
6:00 PM81 °FPassing clouds.3 mph51%29.89 "HgN/A
5:30 PM81 °FSunny.1 mph51%29.89 "Hg10 mi
5:00 PM81 °FSunny.1 mph48%29.92 "Hg10 mi
4:30 PM81 °FSunny.1 mph51%29.92 "Hg10 mi
4:00 PM81 °FPassing clouds.1 mph48%29.92 "HgN/A
3:30 PM79 °FPassing clouds.3 mph54%29.92 "HgN/A
3:00 PM81 °FPassing clouds.3 mph54%29.92 "HgN/A
2:30 PM81 °FScattered clouds.6 mph51%29.95 "HgN/A
2:00 PM81 °FPartly sunny.6 mph51%29.95 "HgN/A
1:30 PM77 °FPartly sunny.6 mph61%29.95 "HgN/A
1:00 PM79 °FPartly sunny.3 mph51%29.95 "HgN/A
Weather by CustomWeather, © 2016

See weather overviewHow to use our weather pages